GFSFLT1_850_dewp_000.txt.gz
Dewpoint
4 4 5 5 0 5 8 2 2 -3 1 -2 -2 -3 -2 -3 -2 -2 -2 -2 -1 -2 -1 -1 1 5 4 3 3 3 2 1
3 4 -2 -2 1 6 7 5 -4 -3 -0 -1 -1 -0 -0 0 0 -2 -1 -1 -1 -1 -2 0 -0 3 3 -0 3 4 4 3
-1 -1 -1 3 5 5 4 -0 -3 -3 -2 -3 -2 -2 0 -1 -0 -1 -1 -2 -4 -7 -4 -2 -0 1 2 2 3 3 4 4
-1 0 -0 -0 -0 -0 -1 -2 -3 -3 -1 -0 -0 -0 -0 -0 -1 -2 -4 -6 -9 -12 -10 -10 -9 -3 -1 0 1 2 1 2
-2 -1 0 -2 -3 -3 -3 -2 -1 -1 -2 -2 -2 -0 -1 -3 -2 -1 -5 -8 -15 -18 -18 -18 -17 -9 -2 -1 -2 -0 0 -0
0 0 1 1 -0 -1 -1 1 -0 -2 -2 -2 -1 -2 -1 -0 -1 -2 -4 -6 -9 -16 -18 -16 -12 -8 -3 -6 -3 -0 1 1
1 1 1 1 2 -0 -0 0 -0 -2 -2 -2 -4 -2 0 -0 -3 -4 -5 -5 -5 -4 -10 -10 -6 -4 -2 -1 -1 -0 1 1
1 1 1 2 1 -1 -0 -0 0 1 1 -0 -1 -3 -2 -2 -3 -4 -4 -5 -4 -3 -7 -1 -2 -1 -1 -1 0 0 -1 -1
1 1 1 2 1 -1 -1 -0 1 1 -1 -3 -6 -3 -1 -2 -2 -4 -5 -4 -4 -5 -1 -1 -1 -1 -0 -0 -0 -1 -2 -1
0 0 1 2 2 2 1 -0 0 0 -1 -0 -3 -0 -1 -4 -8 -6 -3 -4 -2 -1 -1 -2 -3 -2 -2 -2 -2 -3 -3 -4
0 0 1 1 1 1 0 1 2 1 1 -1 -1 -3 -4 -6 -4 -3 -3 -2 -1 -2 -3 -3 -3 -3 -2 -3 -4 -4 -4 -6
1 1 1 1 2 2 2 3 2 1 -1 -2 -2 -2 -3 -3 -3 -2 -2 -2 -3 -3 -3 -3 -2 -3 -4 -4 -4 -4 -5 -6
1 1 1 2 2 2 2 2 -1 -4 -4 -2 -2 -3 -3 -3 -2 -2 -1 -1 -2 -2 -3 -3 -3 -4 -4 -4 -4 -6 -7 -8
0 1 1 2 1 1 -1 -3 -4 -2 -4 -3 -3 -2 -2 -2 -2 -2 -2 -3 -3 -3 -4 -4 -4 -4 -4 -5 -7 -8 -8 -8
1 2 2 1 1 -0 -3 -2 -1 -5 -6 -3 -3 -2 -2 -4 -5 -4 -4 -4 -4 -4 -6 -6 -6 -8 -8 -9 -10 -9 -9 -10
2 1 1 -0 -0 -0 0 -0 -5 -7 -3 -3 -4 -4 -5 -5 -6 -7 -7 -8 -10 -11 -11 -11 -10 -11 -12 -11 -11 -10 -10 -9
1 1 -2 -2 -2 -0 1 -2 -3 -4 -3 -4 -6 -6 -7 -8 -8 -10 -11 -12 -12 -11 -11 -11 -10 -11 -10 -13 -13 -9 -10 -10
-1 -1 -3 -3 -2 1 -2 -3 -3 -2 -4 -6 -6 -6 -9 -10 -11 -13 -12 -12 -11 -11 -11 -10 -10 -10 -10 -13 -15 -13 -10 -10
-2 -3 -4 -3 -1 -1 -3 -3 -3 -4 -5 -6 -5 -7 -9 -11 -12 -12 -12 -12 -11 -11 -10 -10 -10 -10 -11 -13 -15 -13 -10 -10

GFSFLT1_850_dewp_003.txt.gz
Dewpoint
2 4 3 3 4 4 6 8 3 4 5 5 2 2 2 2 2 2 3 3 4 4 4 4 4 4 4 3 4 4 4 3
4 2 3 4 6 4 4 6 5 4 3 2 0 0 1 1 2 3 3 3 1 2 2 2 2 2 2 2 2 3 3 3
1 2 3 3 6 6 6 5 3 1 0 1 1 1 2 2 2 1 1 1 -0 -1 -1 -0 -1 -1 -0 -0 0 1 2 2
1 2 4 5 5 4 3 2 2 2 1 1 1 0 0 0 0 1 1 1 0 -1 -1 -1 -1 -1 -1 -2 -2 -1 -0 0
-2 0 2 4 4 3 2 2 1 1 -1 1 1 1 1 1 1 1 0 -1 -3 -3 -3 -1 -0 -1 -2 -2 -3 -2 -2 -1
0 1 1 2 3 3 3 2 1 1 1 1 2 2 3 3 2 0 -1 -3 -3 -3 -3 -2 -2 -2 -1 -1 -0 1 0 -0
1 1 1 3 3 3 2 1 1 2 2 2 2 2 1 0 -1 -2 -3 -2 -3 -3 -3 -2 -2 -1 -1 -1 -1 -0 1 0
1 1 1 2 2 2 2 1 1 1 2 1 -0 -1 -0 -1 -1 -2 -2 -3 -4 -3 -2 -1 -2 -2 -2 -1 -1 -1 -0 -0
1 1 2 2 2 2 3 2 1 0 1 1 0 0 -0 -1 -1 -2 -3 -3 -3 -3 -2 -2 -2 -2 -3 -2 -1 -1 -1 -1
1 1 1 2 2 2 3 2 2 2 2 1 1 -0 -1 -1 -2 -2 -3 -3 -4 -4 -3 -3 -3 -3 -2 -2 -2 -2 -2 -2
0 0 1 1 1 2 2 3 2 2 1 0 -1 -1 -1 -2 -3 -3 -3 -3 -3 -2 -3 -2 -2 -2 -2 -2 -2 -3 -3 -3
-0 0 1 1 1 2 2 2 3 1 0 -1 -1 -1 -2 -3 -3 -3 -2 -2 -2 -2 -4 -3 -3 -3 -3 -4 -3 -4 -3 -3
0 -0 0 1 2 2 2 2 1 1 -1 -2 -3 -3 -3 -4 -3 -2 -3 -2 -2 -3 -3 -3 -4 -3 -4 -4 -4 -5 -5 -5
1 1 1 1 1 2 2 2 1 1 -1 -2 -3 -4 -4 -3 -3 -4 -4 -4 -4 -4 -5 -5 -5 -6 -7 -8 -8 -7 -7 -7
1 1 1 1 1 0 1 1 1 0 -1 -3 -4 -4 -4 -5 -5 -6 -6 -7 -8 -10 -11 -11 -11 -11 -11 -11 -10 -10 -11 -12
2 1 0 -0 -2 -2 -2 1 0 -1 -1 -3 -4 -6 -6 -7 -8 -8 -9 -10 -11 -12 -12 -12 -11 -11 -11 -11 -10 -9 -10 -10
2 -0 -1 -2 -3 -3 -3 -1 -3 -2 -2 -4 -5 -6 -6 -7 -9 -10 -12 -12 -12 -12 -11 -11 -11 -11 -11 -11 -11 -11 -11 -11
0 -1 -3 -4 -5 -6 -4 -4 -4 -3 -4 -5 -6 -6 -5 -8 -9 -12 -12 -13 -12 -11 -11 -11 -10 -10 -9 -10 -11 -12 -10 -11
-2 -3 -5 -8 -8 -7 -6 -4 -5 -6 -6 -6 -7 -5 -5 -7 -9 -11 -12 -12 -11 -11 -11 -10 -10 -10 -8 -9 -10 -11 -11 -11

GFSFLT1_850_dewp_009.txt.gz
Dewpoint
3 3 4 5 5 8 8 8 8 6 5 6 4 5 3 3 2 3 3 2 2 2 2 1 1 0 -1 -1 0 0 -0 -3
4 4 5 5 6 9 8 6 6 6 6 5 4 3 1 2 2 2 2 2 1 1 1 1 -1 -2 -1 -2 -2 -3 -4 -2
5 6 6 6 7 7 7 6 4 3 2 2 2 1 1 0 -0 1 1 1 2 2 1 -1 -2 -2 -3 -3 -4 -4 -9 -7
5 5 5 4 4 3 3 3 2 2 1 1 0 -1 0 1 1 1 1 -1 -2 -1 -2 -2 -3 -3 -3 -4 -4 -5 -4 -2
4 3 3 3 3 2 2 1 1 -0 -1 0 1 2 3 2 3 0 -0 -1 -1 -1 -2 -3 -5 -6 -3 -4 -5 -5 -0 -1
3 3 2 2 2 2 1 2 1 2 1 2 3 3 0 -1 0 0 -0 -1 -1 -2 -3 -5 -7 -7 -6 -4 -3 -2 -2 -1
2 2 2 2 2 2 2 3 3 2 2 3 2 1 1 1 0 0 -0 -0 -1 -4 -5 -5 -4 -3 -2 -2 -2 -1 -2 -2
2 3 3 2 2 3 3 3 3 2 2 2 2 2 1 1 0 -0 -1 -3 -4 -4 -4 -3 -3 -3 -2 -2 -2 -3 -2 -2
1 1 1 2 2 2 2 2 2 3 2 2 2 1 1 -0 0 0 -3 -3 -3 -2 -2 -3 -5 -4 -3 -2 -2 -2 -2 -2
1 2 2 2 1 2 2 2 2 3 3 2 1 1 0 1 0 -2 -3 -3 -2 -2 -6 -9 -6 -8 -7 -6 -5 -6 -6 -4
1 2 2 2 2 1 1 1 2 2 2 2 1 0 -1 -1 -2 -3 -3 -3 -3 -9 -10 -7 -7 -7 -7 -7 -8 -9 -9 -8
1 1 1 1 1 1 0 0 0 0 0 -1 -1 -1 -2 -3 -3 -3 -4 -6 -9 -8 -7 -8 -9 -10 -11 -11 -11 -10 -10 -8
2 2 2 1 0 -0 -1 -2 -1 -2 -2 -3 -0 -1 -2 -4 -5 -4 -8 -7 -7 -8 -8 -9 -11 -12 -12 -11 -11 -10 -10 -9
2 2 -1 -0 -0 -1 -2 -3 -4 -4 -4 -2 -1 -1 -1 -2 -3 -6 -7 -7 -7 -9 -11 -12 -12 -12 -12 -11 -11 -11 -11 -11
1 -1 -0 -1 -2 -3 -5 -6 -8 -7 -7 -3 -4 -4 -2 -2 -4 -4 -5 -6 -8 -11 -12 -12 -13 -11 -11 -11 -11 -10 -10 -11
-0 -2 -3 -3 -5 -7 -8 -9 -9 -10 -10 -8 -7 -4 -2 -2 -1 -4 -3 -6 -10 -11 -11 -12 -11 -11 -11 -10 -10 -9 -10 -10
-2 -3 -3 -6 -7 -8 -9 -10 -10 -11 -11 -11 -9 -5 -3 -3 -1 -2 -5 -7 -9 -10 -12 -11 -10 -10 -9 -9 -9 -9 -10 -12
-5 -5 -8 -8 -9 -10 -10 -10 -11 -12 -11 -10 -6 -5 -6 -5 -5 -3 -5 -5 -8 -11 -11 -10 -10 -9 -8 -8 -10 -12 -11 -11
-7 -8 -9 -10 -11 -11 -11 -11 -12 -12 -11 -9 -8 -6 -7 -6 -4 -3 -5 -8 -10 -11 -10 -10 -10 -9 -10 -13 -11 -10 -10 -11

GFSFLT1_850_dewp_015.txt.gz
Dewpoint
6 6 6 6 5 8 9 8 9 8 6 7 6 5 5 4 3 4 3 3 2 1 1 1 -2 -3 -2 -1 -2 -3 -3 -5
7 6 6 8 9 8 9 9 8 8 8 7 5 5 3 3 2 1 3 3 2 1 -1 -2 -1 -2 -2 -3 -3 -5 -6 -8
9 10 11 11 10 8 8 9 9 7 6 6 6 3 1 1 1 2 2 1 -0 -2 -1 -1 -1 -2 -3 -4 -4 -6 -10 -13
9 8 7 7 6 6 4 4 4 4 4 2 0 0 0 0 -0 -1 0 0 -1 -0 -1 -1 -2 -3 -3 -7 -11 -10 -11 -9
4 4 4 3 2 2 2 0 -0 0 0 -0 0 -0 0 1 1 1 0 0 0 -1 -1 -2 0 -0 -2 -7 -7 -6 -6 -4
2 2 2 1 1 1 2 2 3 2 2 2 2 2 2 1 0 1 1 -0 -1 -0 1 1 -4 -5 -6 -4 -7 -11 -8 -4
3 2 2 2 2 2 3 3 3 2 2 2 2 2 2 1 1 0 0 0 -1 -2 -5 -4 -4 -4 -4 -11 -15 -13 -11 -9
3 3 3 3 3 3 3 2 2 2 2 2 2 1 -0 -3 -3 -4 -5 -3 -4 -5 -3 -3 -3 -8 -15 -15 -12 -12 -11 -11
3 3 3 3 2 2 2 1 1 0 1 1 -1 -4 -6 -7 -4 -3 -3 -3 -2 -3 -3 -3 -12 -13 -15 -14 -16 -14 -13 -12
3 2 2 2 1 1 -1 -3 -4 -3 -4 -5 -6 -6 -6 -3 -2 -3 -3 -2 -2 -1 -2 -6 -8 -9 -11 -12 -13 -12 -12 -12
2 2 1 1 -0 -2 -6 -7 -6 -6 -8 -8 -7 -4 -1 -1 -2 -3 -2 -2 -3 -3 -3 -4 -5 -7 -11 -12 -13 -13 -13 -13
1 1 1 -1 -4 -6 -5 -5 -5 -6 -7 -9 -9 -9 -6 -11 -12 -5 -2 -3 -3 -3 -3 -4 -5 -10 -12 -12 -14 -14 -12 -11
1 0 -3 -4 -5 -4 -4 -5 -6 -7 -8 -9 -10 -11 -14 -17 -13 -3 -3 -4 -5 -4 -4 -3 -9 -12 -12 -13 -12 -12 -11 -10
-0 -3 -6 -5 -4 -5 -6 -7 -8 -9 -10 -11 -11 -13 -16 -15 -13 -12 -12 -10 -5 -3 -3 -5 -11 -12 -10 -11 -11 -10 -10 -9
-3 -5 -5 -4 -6 -7 -8 -9 -9 -10 -11 -12 -13 -14 -12 -11 -11 -10 -12 -5 -2 -5 -7 -9 -11 -8 -10 -11 -10 -9 -9 -8
-6 -7 -6 -6 -7 -8 -9 -10 -11 -12 -12 -12 -12 -12 -10 -10 -9 -10 -8 -3 -3 -4 -6 -10 -7 -9 -10 -9 -9 -9 -10 -12
-6 -7 -7 -7 -8 -10 -11 -12 -12 -12 -12 -12 -11 -10 -9 -9 -8 -10 -7 -5 -4 -5 -6 -8 -9 -9 -9 -10 -10 -12 -12 -12
-7 -7 -8 -10 -11 -12 -12 -12 -11 -11 -11 -10 -10 -9 -8 -7 -8 -8 -7 -7 -6 -6 -6 -8 -9 -9 -10 -11 -12 -14 -14 -15
-7 -8 -10 -11 -12 -12 -11 -11 -11 -11 -11 -9 -8 -8 -7 -7 -8 -7 -6 -6 -7 -7 -8 -9 -9 -10 -11 -13 -15 -17 -17 -16

GFSFLT1_850_dewp_021.txt.gz
Dewpoint
6 5 5 5 5 7 9 10 9 9 7 9 8 7 5 5 6 4 3 2 2 2 2 1 -0 -1 -1 -1 -1 -1 -1 -3
7 7 7 7 8 8 10 10 8 8 8 7 5 5 6 2 1 1 1 1 0 0 0 -0 -1 -1 -1 -1 -0 -1 -6 -11
9 8 8 9 9 10 10 9 8 6 5 5 5 1 0 0 1 1 0 1 1 0 -0 -0 -0 -1 -3 -5 -8 -10 -10 -12
10 10 8 8 9 9 9 7 5 5 5 1 0 1 1 1 1 2 2 1 1 0 -2 -5 -6 -7 -6 -5 -4 -5 -10 -14
7 5 4 3 3 3 3 1 2 2 1 2 2 2 2 2 2 1 1 0 -2 -6 -9 -12 -8 -4 -4 -3 -3 -9 -16 -15
4 3 2 2 1 1 1 1 2 2 2 2 2 2 2 2 1 -2 -5 -8 -9 -9 -8 -10 -10 -7 -3 -3 -6 -14 -17 -18
2 2 1 1 1 1 2 2 3 2 2 2 1 1 -1 -5 -9 -8 -8 -9 -9 -9 -5 -3 -4 -4 -4 -4 -8 -9 -11 -16
2 1 1 1 1 2 3 3 2 1 -1 -4 -10 -14 -14 -15 -14 -11 -8 -6 -8 -11 -10 -3 -1 -3 -2 -4 -5 -8 -13 -14
2 2 2 2 2 3 3 2 -1 -5 -8 -11 -11 -11 -10 -8 -7 -6 -11 -15 -15 -12 -9 -3 -2 -4 -5 -3 -7 -11 -12 -13
2 3 3 3 3 2 -0 -3 -4 -7 -7 -10 -9 -9 -10 -11 -12 -14 -17 -17 -17 -17 -9 -2 -3 -5 -4 -4 -7 -9 -12 -13
3 3 3 2 1 -2 1 2 1 -1 -9 -8 -9 -10 -11 -12 -14 -17 -15 -15 -16 -17 -14 -4 -4 -4 -4 -4 -6 -9 -12 -10
4 3 2 0 -2 0 1 -3 -4 -9 -8 -9 -10 -11 -12 -14 -17 -15 -12 -11 -13 -14 -12 -6 -4 -4 -4 -4 -6 -11 -10 -10
3 2 0 -2 -2 -1 -5 -4 -7 -7 -8 -10 -11 -12 -13 -16 -13 -10 -9 -9 -11 -13 -11 -6 -6 -5 -4 -6 -10 -9 -9 -9
2 1 -1 -2 -2 -4 -4 -5 -7 -8 -10 -11 -12 -12 -13 -12 -10 -9 -9 -10 -11 -11 -8 -6 -3 -4 -4 -10 -9 -8 -9 -9
1 0 -2 -4 -5 -4 -3 -7 -8 -10 -11 -12 -11 -11 -11 -10 -9 -9 -9 -9 -10 -9 -7 -5 -5 -5 -6 -8 -8 -9 -9 -10
1 -0 -3 -5 -5 -1 -6 -7 -9 -11 -12 -10 -11 -11 -10 -9 -8 -9 -9 -9 -8 -8 -7 -7 -6 -4 -5 -6 -9 -9 -10 -11
0 -2 -4 -6 -1 -5 -6 -9 -11 -12 -11 -10 -11 -10 -11 -9 -9 -9 -9 -9 -8 -6 -6 -7 -6 -7 -8 -9 -9 -10 -11 -15
0 -3 -5 -4 -2 -7 -9 -11 -12 -11 -10 -12 -12 -14 -11 -9 -9 -10 -9 -8 -8 -7 -6 -7 -7 -8 -8 -9 -10 -12 -15 -19
-0 -4 -5 -2 -8 -10 -11 -11 -11 -10 -14 -15 -17 -13 -10 -10 -10 -9 -8 -9 -9 -7 -8 -7 -7 -7 -9 -9 -12 -15 -18 -19

GFSFLT1_850_dewp_024.txt.gz
Dewpoint
7 7 9 10 11 9 9 9 10 10 5 7 7 8 6 5 6 5 4 2 3 1 0 0 -0 1 2 2 1 1 0 -1
6 6 6 10 10 11 10 10 10 8 7 7 7 5 5 5 4 2 2 2 1 0 1 1 1 1 1 -1 -1 -2 -3 -3
9 11 10 9 10 11 10 10 10 9 6 6 6 6 5 2 1 2 2 1 1 1 0 1 -0 -2 -0 -1 -2 -3 -4 -4
10 11 11 10 10 10 11 10 9 6 6 6 5 3 1 2 3 2 2 1 0 -1 -2 -6 -8 -5 -5 -2 -2 -2 -4 -6
10 10 10 11 11 11 8 7 5 5 5 4 4 4 4 3 2 2 1 -1 -3 -6 -8 -8 -4 -3 -2 -3 -4 -3 -4 -6
7 7 8 9 9 8 5 4 3 2 2 3 3 2 2 1 0 -2 -1 -2 -1 -1 -2 -2 -2 -1 -2 -2 -3 -3 -5 -5
4 4 4 5 5 5 2 3 2 2 2 2 1 -3 -4 -4 -3 -4 -5 -4 -3 -2 -1 -1 -1 -2 -2 -2 -2 -3 -4 -5
3 3 3 3 4 4 3 3 3 2 1 -3 -7 -5 -5 -4 -4 -4 -3 -6 -7 -6 -4 -5 -3 -2 -1 -2 -3 -3 -4 -6
3 3 3 4 4 4 3 3 1 -1 -6 -5 -4 -9 -4 -4 -5 -7 -8 -7 -8 -7 -7 -5 -3 -2 -1 -3 -3 -4 -3 -4
3 3 4 4 4 4 3 0 -1 -2 0 -7 -11 -10 -8 -8 -8 -7 -8 -8 -8 -8 -7 -5 -3 -2 -2 -3 -4 -3 -3 -4
3 4 4 3 3 3 1 1 -0 -5 -4 -9 -9 -10 -11 -10 -7 -8 -8 -8 -7 -7 -7 -6 -5 -4 -4 -3 -4 -4 -4 -5
4 4 4 3 3 1 2 -2 -3 -7 -6 -8 -9 -8 -9 -8 -7 -8 -7 -6 -6 -6 -6 -5 -5 -5 -4 -4 -4 -3 -5 -7
4 4 3 2 1 1 -1 -4 -3 -2 -5 -8 -8 -11 -8 -7 -8 -7 -6 -5 -6 -6 -5 -5 -5 -4 -3 -3 -3 -6 -6 -7
4 3 2 1 0 -0 -4 -1 -1 -5 -7 -8 -9 -8 -7 -8 -7 -6 -5 -5 -6 -5 -5 -5 -5 -4 -5 -5 -5 -6 -6 -6
4 3 2 0 -0 -4 -2 0 -5 -7 -8 -9 -9 -7 -7 -7 -6 -5 -5 -5 -6 -5 -5 -5 -4 -5 -4 -5 -6 -5 -6 -7
3 2 1 1 -1 -4 -1 -3 -5 -8 -8 -9 -8 -7 -8 -7 -6 -5 -5 -5 -5 -5 -5 -4 -5 -5 -6 -6 -6 -6 -7 -9
2 2 1 -1 -3 -3 -1 -3 -7 -8 -10 -8 -8 -13 -9 -7 -5 -5 -6 -6 -6 -6 -5 -4 -5 -6 -7 -8 -8 -9 -9 -11
2 1 -0 -2 -3 -1 -1 -6 -8 -10 -10 -9 -11 -10 -9 -7 -7 -7 -7 -6 -5 -6 -5 -5 -6 -6 -7 -7 -10 -10 -11 -11
1 1 -1 -2 -2 -2 -6 -8 -10 -11 -10 -11 -10 -9 -8 -7 -7 -7 -6 -6 -6 -6 -5 -6 -6 -7 -8 -9 -10 -12 -11 -11

GFSFLT1_850_dewp_027.txt.gz
Dewpoint
8 6 6 6 9 12 12 11 8 7 7 6 6 7 7 7 6 6 5 4 3 4 4 1 2 3 3 4 3 2 0 -2
9 9 9 9 11 11 12 12 9 9 9 9 9 8 7 6 6 5 3 3 2 2 3 3 3 3 2 2 1 -1 -3 -4
9 10 10 10 11 11 11 11 10 10 10 9 8 7 6 5 4 3 3 2 2 2 2 2 1 0 -2 -3 -1 -1 -3 -4
9 10 11 11 11 11 11 10 10 10 8 7 7 6 5 4 4 4 3 2 2 1 1 0 -1 -2 -3 -3 -2 -2 -3 -4
9 10 11 11 11 10 10 10 9 7 6 5 5 4 4 4 4 3 2 2 1 -1 -2 -1 -1 -1 -1 -2 -3 -3 -3 -4
9 9 10 11 10 10 9 7 6 6 5 5 5 4 4 3 1 0 -2 -1 -2 -2 -1 -1 -0 -1 -1 -2 -2 -2 -3 -3
7 7 8 9 10 7 7 5 5 5 5 5 4 2 -1 -3 -2 -3 -4 -4 -4 -5 -5 -4 -4 -4 -2 -2 -2 -2 -2 -2
4 5 6 7 7 6 5 4 4 4 3 1 -0 -4 -2 1 -2 -4 -5 -7 -7 -7 -6 -6 -6 -5 -3 -2 -3 -3 -3 -3
3 3 3 4 5 5 4 4 4 3 0 -1 -1 -2 -2 -4 -5 -6 -6 -7 -8 -7 -7 -6 -6 -4 -4 -3 -2 -2 -3 -2
3 2 3 4 4 4 4 4 2 -0 -0 1 -6 -8 -8 -7 -6 -5 -7 -7 -8 -8 -6 -6 -7 -6 -5 -3 -2 -2 -3 -4
2 2 3 4 4 4 4 3 -0 1 -2 -4 -8 -9 -5 -6 -5 -6 -7 -7 -6 -6 -6 -6 -5 -5 -5 -5 -4 -5 -4 -3
3 3 4 4 4 4 3 2 1 -0 -2 -2 -4 -4 -6 -6 -5 -6 -7 -6 -5 -6 -6 -6 -6 -6 -6 -4 -4 -4 -3 -3
3 4 4 4 4 4 3 2 -0 -2 0 -2 -3 -5 -7 -6 -6 -7 -6 -5 -5 -5 -7 -6 -6 -7 -5 -5 -4 -4 -4 -4
3 4 4 4 4 2 2 1 -1 1 0 -2 -6 -7 -6 -6 -6 -7 -6 -5 -5 -6 -6 -6 -6 -6 -6 -5 -5 -4 -5 -5
3 3 4 3 3 2 1 -1 -0 1 -2 -5 -8 -8 -6 -6 -7 -7 -6 -5 -5 -6 -6 -6 -6 -5 -6 -5 -5 -5 -5 -6
3 4 4 3 2 2 -0 -1 1 1 -3 -6 -8 -7 -6 -6 -7 -6 -5 -5 -6 -6 -6 -7 -5 -5 -6 -7 -6 -6 -7 -7
3 3 3 3 2 1 -2 -1 -1 -1 -4 -6 -7 -7 -6 -8 -8 -6 -5 -7 -7 -6 -6 -6 -5 -5 -6 -8 -8 -8 -9 -10
1 2 3 2 2 1 -2 -2 -0 -3 -6 -7 -7 -7 -7 -8 -8 -8 -8 -7 -6 -6 -6 -6 -5 -5 -7 -9 -8 -10 -10 -10
0 2 2 2 1 -1 -2 -1 -4 -5 -7 -7 -7 -8 -9 -8 -8 -8 -8 -7 -6 -7 -6 -5 -5 -5 -6 -9 -9 -11 -9 -9

GFSFLT1_850_dewp_030.txt.gz
Dewpoint
4 3 4 6 10 10 10 10 9 10 8 6 6 5 5 5 7 6 5 4 4 3 3 2 2 3 3 2 1 -1 -3 -5
6 5 4 5 10 11 11 11 9 8 8 8 8 6 6 7 6 5 4 2 2 2 3 3 3 2 1 -2 -4 -4 -4 -2
9 8 8 10 11 11 11 11 11 9 10 9 8 8 6 6 5 3 3 3 3 2 2 1 0 -2 -6 -4 -3 -3 -2 -3
9 9 10 10 11 11 10 11 10 10 10 8 8 7 6 5 3 3 3 3 2 1 0 -2 -4 -3 -2 -2 -2 -2 -3 -3
9 9 11 12 12 10 10 10 10 9 8 7 7 6 4 4 4 4 3 1 -2 -2 -1 -1 -0 -0 -3 -2 -1 -2 -2 -2
8 10 10 10 10 10 11 10 8 8 6 6 5 5 4 4 3 2 -2 -2 -2 -2 -2 -3 -2 -1 -3 -3 -2 -2 -2 -2
8 10 10 10 9 10 9 8 7 7 6 5 5 5 3 1 -1 -1 -2 -3 -3 -4 -6 -5 -7 -11 -7 -5 -3 -3 -2 -3
8 9 10 9 9 9 8 6 6 5 5 5 5 4 1 -3 1 -2 -3 -4 -6 -7 -7 -9 -9 -11 -7 -4 -3 -2 -2 -4
7 7 8 9 8 7 6 5 5 5 4 2 1 -1 -1 -1 -2 -3 -5 -6 -6 -8 -8 -7 -10 -8 -6 -5 -4 -3 -3 -2
5 5 6 7 7 6 5 4 4 4 1 -0 -1 -0 -3 -5 -4 -1 -7 -6 -8 -8 -7 -7 -6 -6 -5 -5 -5 -5 -4 -3
3 3 4 5 5 5 4 4 4 2 -0 1 -1 -3 -4 -2 -6 -5 -5 -6 -6 -6 -5 -6 -6 -6 -6 -6 -5 -5 -4 -4
3 3 3 4 5 5 4 4 3 1 1 0 -2 -1 -2 -4 -4 -5 -5 -6 -6 -5 -5 -5 -6 -6 -6 -6 -5 -8 -5 -5
3 3 3 4 5 5 5 5 2 1 0 -0 -1 -2 -2 -5 -6 -5 -6 -7 -6 -5 -5 -6 -6 -6 -6 -6 -6 -4 -8 -4
3 3 3 4 4 4 5 3 2 1 -1 -1 -1 -2 -5 -6 -6 -6 -6 -7 -6 -5 -5 -6 -6 -6 -6 -6 -5 -6 -6 -5
2 3 3 4 4 4 4 3 2 0 -1 -0 -3 -3 -4 -6 -6 -5 -7 -6 -6 -5 -5 -6 -6 -6 -5 -6 -5 -6 -6 -6
1 2 3 4 4 4 4 3 2 -0 -1 -1 -4 -4 -7 -4 -5 -6 -7 -6 -5 -5 -6 -6 -6 -6 -4 -6 -6 -9 -7 -7
-1 1 3 4 4 4 3 2 0 0 -0 -2 -5 -2 -5 -6 -6 -7 -8 -6 -6 -7 -6 -6 -6 -5 -6 -6 -7 -9 -9 -12
-3 -0 1 3 3 4 2 2 -1 -0 -1 -3 -3 -5 -6 -6 -7 -8 -8 -8 -8 -7 -6 -6 -6 -5 -5 -6 -6 -10 -11 -11
-2 -2 -0 1 3 3 2 0 -1 -1 -1 -4 -4 -6 -7 -8 -8 -10 -9 -8 -8 -7 -6 -6 -6 -4 -5 -6 -6 -8 -11 -11

GFSFLT1_850_dewp_033.txt.gz
Dewpoint
6 7 8 8 8 7 5 7 8 9 7 4 3 4 5 5 5 6 6 5 4 2 0 1 0 1 2 2 -1 -6 -7 -7
4 5 7 8 9 9 7 7 9 8 6 4 5 7 6 6 6 6 4 3 2 2 1 2 3 2 0 -4 -6 -6 -7 -7
4 4 6 8 9 10 9 8 9 10 6 6 8 8 6 6 6 5 3 2 1 2 2 2 -0 -4 -8 -8 -8 -10 -7 -5
5 7 7 10 10 11 10 10 8 9 8 9 9 7 6 6 5 2 2 2 2 1 -1 -3 -3 -4 -5 -6 -7 -7 -3 -3
7 8 10 11 11 11 11 10 9 9 9 10 8 7 6 5 3 4 3 3 -2 -2 -2 -2 -4 -4 -4 -3 -5 -5 -5 -4
9 9 10 11 11 11 11 10 10 9 8 8 8 7 6 4 4 4 3 -1 -1 -1 -2 -2 -3 -3 -4 -8 -15 -6 -2 -2
9 9 10 10 11 10 10 10 9 8 9 8 7 6 6 4 4 3 -1 -2 -2 -3 -3 -4 -5 -7 -16 -21 -13 -8 -3 -2
9 9 10 10 10 9 10 10 9 8 6 6 6 5 5 4 3 -1 -1 -2 -3 -4 -5 -8 -10 -15 -18 -15 -10 -6 -4 -4
8 9 10 9 9 9 9 9 8 7 6 5 5 4 3 2 -1 -1 -0 -1 -3 -10 -10 -14 -14 -11 -13 -13 -13 -7 -5 -2
9 9 9 9 8 9 9 8 6 6 6 5 5 5 3 -1 -1 -1 1 -1 -6 -12 -12 -11 -10 -11 -10 -8 -7 -7 -5 -4
7 8 9 9 9 8 7 6 5 5 5 5 4 2 -0 -2 -4 -4 -4 -8 -8 -8 -9 -8 -7 -6 -8 -6 -6 -5 -5 -5
6 6 6 7 8 7 6 5 4 4 4 3 1 0 -2 -6 -4 -4 -5 -4 -5 -7 -6 -6 -5 -5 -7 -6 -6 -6 -6 -8
4 4 4 4 5 5 5 4 4 4 3 1 0 1 -3 -2 -3 -4 -2 -5 -6 -6 -6 -5 -5 -5 -7 -6 -6 -6 -6 -7
3 3 3 3 4 4 5 5 4 4 2 1 1 -0 -1 -3 -3 -2 -4 -6 -6 -6 -5 -5 -5 -5 -6 -6 -6 -5 -7 -7
4 3 3 3 3 4 5 5 5 4 1 1 0 -0 -2 -2 -1 -4 -4 -4 -6 -6 -6 -5 -5 -7 -6 -6 -6 -5 -6 -8
4 3 3 3 4 4 5 5 5 4 2 1 0 -2 -2 -0 -3 -3 -2 -5 -7 -8 -6 -6 -7 -6 -6 -6 -6 -6 -6 -7
-3 1 3 3 4 4 5 5 4 4 3 0 -0 -2 0 -2 -3 -1 -5 -10 -10 -7 -7 -7 -7 -6 -6 -6 -6 -6 -6 -9
-2 -2 -0 4 4 4 5 5 4 3 1 0 -2 -2 -0 -3 -2 -3 -6 -10 -9 -8 -8 -7 -6 -6 -6 -6 -5 -6 -6 -8
-4 -3 -2 -1 1 5 5 4 3 1 0 -2 -2 -3 -3 -4 -3 -7 -9 -10 -10 -9 -7 -7 -6 -6 -6 -6 -5 -6 -6 -7